Date,TemperatureHighF,TemperatureAvgF,TemperatureLowF,DewpointHighF,DewpointAvgF,DewpointLowF,HumidityHigh,HumidityAvg,HumidityLow,PressureMaxIn,PressureMinIn,WindSpeedMaxMPH,WindSpeedAvgMPH,GustSpeedMaxMPH,PrecipitationSumIn
2013-1-1,37,32,24,6,-6,-19,30,19,12,29.97,29.79,27,12,27,0.00
2013-1-2,33,24,16,-14,-19,-22,16,14,12,30.12,29.94,26,10,29,0.00
2013-1-3,30,19,10,-17,-21,-26,17,15,12,30.21,30.09,17,7,19,0.00
2013-1-4,38,31,18,3,-8,-22,32,18,11,30.09,29.91,31,12,31,0.00
2013-1-5,46,33,24,-3,-11,-15,29,15,9,30.32,29.94,25,8,26,0.00
2013-1-6,42,35,24,27,15,-3,66,44,29,30.30,30.00,20,6,21,0.00
2013-1-7,43,34,25,16,6,-6,49,31,13,30.47,30.03,21,6,21,0.00
2013-1-8,45,40,35,22,12,-5,51,33,12,30.44,30.35,29,12,30,0.00
2013-1-9,47,39,28,35,19,7,71,46,28,31.03,30.30,28,6,28,0.00
2013-1-10,52,42,36,13,-9,-12,28,11,7,31.03,31.03,30,10,32,0.00
2013-1-11,42,37,29,27,6,-8,57,28,14,31.03,31.03,12,4,13,0.00
2013-1-12,48,44,40,37,30,20,78,58,40,31.03,31.03,13,6,13,0.00
2013-1-13,49,47,44,44,39,34,83,74,64,31.03,31.03,13,4,13,0.00
2013-1-14,55,48,43,54,42,15,95,81,30,31.03,31.03,22,7,22,0.00
2013-1-15,46,42,40,34,26,19,63,52,39,31.03,31.03,17,4,18,0.00
2013-1-16,47,43,39,39,32,19,81,67,44,31.03,31.03,23,7,23,0.00
2013-1-17,44,39,33,35,16,-2,79,43,15,31.03,31.03,18,8,19,0.00
2013-1-18,33,25,15,17,-10,-24,63,24,12,31.03,31.03,31,10,31,0.00
2013-1-19,46,39,15,31,13,-24,57,35,13,31.03,31.03,33,17,33,0.00
2013-1-20,49,44,30,37,15,-16,73,36,10,31.03,31.03,31,14,31,0.00
2013-1-21,36,29,24,16,-9,-20,52,22,11,31.03,31.03,19,7,19,0.00
2013-1-22,32,24,14,16,-8,-25,53,27,12,31.03,31.03,26,10,26,0.00
2013-1-23,18,12,8,-22,-26,-30,16,15,14,31.03,31.03,28,13,29,0.00
2013-1-24,21,12,4,-22,-27,-33,16,15,14,31.03,31.03,30,13,30,0.00
2013-1-25,27,17,8,-18,-23,-29,16,15,12,31.03,31.03,27,9,29,0.00
2013-1-26,30,22,17,4,-12,-23,41,22,12,31.03,31.03,27,10,28,0.00
2013-1-27,33,21,14,-14,-21,-25,15,14,12,31.03,31.03,26,11,26,0.00
2013-1-28,36,26,18,19,-12,-23,50,21,12,31.03,31.03,9,5,9,0.00
2013-1-29,40,38,35,25,22,18,55,52,48,31.03,29.70,9,4,10,0.00
2013-1-30,49,44,38,48,38,23,94,79,54,31.03,23.56,25,11,26,0.00
2013-1-31,54,45,32,53,23,-15,97,55,11,28.52,20.19,36,22,38,0.00
2013-2-1,34,29,23,-14,-17,-20,13,12,12,30.09,17.74,28,13,30,0.00
2013-2-2,33,26,19,12,-16,-22,45,15,12,30.27,30.09,23,11,25,0.00
2013-2-3,36,30,25,20,10,5,55,44,30,30.09,29.68,24,7,24,0.00
2013-2-4,33,26,22,10,-11,-20,45,21,12,29.97,29.70,31,12,32,0.00
2013-2-5,33,26,22,17,-5,-20,53,28,13,30.06,29.94,16,5,16,0.00
2013-2-6,40,34,28,23,6,-19,58,36,12,30.30,29.91,17,6,17,0.04
2013-2-7,32,26,23,2,-16,-20,31,15,12,30.53,30.30,17,7,20,0.00
2013-2-8,37,34,30,30,16,2,79,51,30,30.50,29.32,48,18,52,0.12
2013-2-9,36,35,34,30,30,29,81,81,80,29.29,29.23,48,29,48,0.00
2013-2-28,47,42,39,30,22,18,58,46,38,29.59,29.50,11,3,35,0.00
2013-3-1,47,40,37,28,15,-5,60,39,12,29.68,29.50,24,9,27,0.04
2013-3-2,51,40,35,16,4,-12,39,25,8,29.68,29.62,17,7,17,0.00
2013-3-3,41,37,36,19,9,-1,45,31,18,29.65,29.56,16,7,16,0.00
2013-3-4,45,36,31,19,1,-13,51,26,9,29.70,29.56,26,10,28,0.00
2013-3-5,48,38,34,28,12,-3,51,33,20,30.06,29.70,25,10,25,0.00
2013-3-6,44,40,37,24,17,4,52,40,21,30.06,29.91,37,14,39,0.04
2013-3-7,41,40,38,32,28,18,73,64,42,29.91,29.82,40,22,42,1.08
2013-3-8,41,39,38,32,26,8,78,63,26,30.06,29.82,35,18,35,0.79
2013-3-9,41,38,35,18,14,10,47,37,29,30.32,30.03,32,13,32,0.00
2013-3-10,50,40,34,20,9,-9,50,30,9,30.41,30.32,13,7,16,0.00
2013-3-11,49,42,38,32,20,15,61,41,27,30.38,30.21,13,8,13,0.00
2013-3-12,53,49,45,47,37,31,80,63,51,30.24,29.79,21,13,22,0.25
2013-3-13,56,48,39,49,21,-13,81,44,7,29.79,29.70,28,8,28,0.58
2013-3-14,44,34,26,3,-12,-19,27,13,9,29.82,29.70,26,9,26,0.00
2013-3-15,41,31,23,-1,-14,-20,19,13,10,29.88,29.70,31,14,31,0.00
2013-3-16,43,36,32,1,-12,-15,22,12,9,29.88,29.70,20,7,21,0.00
2013-3-17,45,34,28,8,-7,-17,37,18,9,30.32,29.88,23,7,23,0.00
2013-3-18,38,31,24,5,-16,-20,31,12,10,30.47,30.27,19,8,20,0.00
2013-3-19,46,40,32,40,28,5,81,64,31,30.30,29.53,34,17,34,0.37
2013-3-20,43,35,29,20,-3,-14,51,23,9,29.88,29.68,32,15,33,0.00
2013-3-21,48,36,28,23,7,-13,60,33,8,29.88,29.59,21,8,21,0.00
2013-3-22,43,35,31,25,8,-13,66,37,11,29.79,29.59,20,4,20,0.41
2013-3-23,44,36,29,3,-10,-15,31,14,9,29.82,29.68,30,12,30,0.00
2013-3-24,53,38,31,-8,-12,-16,13,11,7,29.88,29.76,21,8,21,0.00
2013-3-25,49,38,31,19,-1,-14,45,21,8,29.79,29.47,30,10,30,0.00
2013-3-26,54,41,35,21,1,-12,50,22,7,29.82,29.47,27,11,27,0.00
2013-3-27,54,42,33,18,-6,-12,39,14,7,29.91,29.76,18,7,18,0.00
2013-3-28,52,43,40,32,9,-12,59,30,8,30.09,29.88,21,8,21,0.04
2013-3-29,61,46,38,14,-1,-11,30,16,6,30.09,30.03,18,7,18,0.00
2013-3-30,59,46,40,20,4,-11,40,21,6,30.18,30.06,15,7,15,0.00
2013-3-31,53,43,32,30,17,2,51,36,13,30.21,29.85,26,6,26,0.00
2013-4-1,53,48,37,42,27,-14,76,47,10,29.85,29.65,29,14,30,0.12
2013-4-2,42,36,30,-10,-14,-16,12,11,10,30.06,29.85,33,15,33,0.00
2013-4-3,49,38,31,-10,-13,-16,12,11,8,30.15,29.94,30,15,35,0.00
2013-4-4,44,35,31,16,-12,-16,36,13,9,30.32,30.12,28,11,28,0.00
2013-4-5,53,44,40,33,21,-1,54,40,16,30.12,29.65,27,10,28,0.04
2013-4-6,50,40,34,5,-11,-15,23,11,8,30.38,29.85,27,10,27,0.00
2013-4-7,49,42,28,25,2,-14,41,22,8,30.44,30.21,25,10,26,0.00
2013-4-8,67,52,46,35,15,-13,58,31,4,30.24,30.12,23,9,23,0.00
2013-4-9,72,53,46,46,21,-14,79,36,3,30.24,29.97,23,9,23,0.00
2013-4-10,63,51,47,37,25,-7,64,41,6,30.15,29.97,18,8,19,0.29
2013-4-11,57,49,44,44,20,-11,78,42,6,30.38,29.97,20,8,20,0.04
2013-4-12,48,44,40,43,15,-10,83,40,11,30.44,29.97,38,13,38,0.58
2013-4-13,54,46,43,43,26,-8,83,53,8,30.32,29.97,30,10,30,0.08
2013-4-14,54,48,41,32,12,-10,56,29,8,30.56,30.30,17,8,19,0.00
2013-4-15,54,46,39,28,9,-10,50,26,8,30.74,30.56,13,7,13,0.00
2013-4-16,57,50,45,39,27,12,58,43,17,30.80,30.44,27,11,27,0.00
2013-4-17,69,56,43,46,14,-13,67,29,4,30.59,30.35,32,10,32,0.00
2013-4-18,54,48,38,33,11,-8,49,27,8,30.80,30.24,18,9,20,0.00
2013-4-19,63,58,52,57,46,33,83,66,47,30.24,29.82,30,14,31,0.00
2013-4-20,63,55,46,57,40,4,85,60,19,30.27,29.73,38,13,38,0.37
2013-4-21,56,45,37,9,-9,-13,22,10,6,30.83,30.27,24,9,24,0.00
2013-4-22,54,43,35,18,1,-12,43,20,7,31.00,30.83,25,10,26,0.00
2013-4-23,50,47,42,43,36,14,82,65,32,30.97,30.59,24,11,25,0.95
2013-4-24,57,51,48,45,38,27,83,63,35,30.62,30.27,34,15,34,0.33
2013-4-25,63,54,50,48,30,-11,72,44,6,30.74,30.47,24,9,24,0.08
2013-4-26,60,51,43,34,13,-10,58,29,6,30.92,30.65,17,7,17,0.00
2013-4-27,61,50,39,33,6,-11,54,22,5,31.00,30.62,11,4,11,0.00
2013-4-28,62,51,38,34,17,-7,49,28,6,30.92,30.53,13,5,13,0.00
2013-4-29,64,54,49,33,15,-10,48,26,5,30.77,30.44,11,5,11,0.00
2013-4-30,61,51,41,23,-1,-12,39,15,6,30.83,30.53,15,5,15,0.00
2013-5-1,62,51,41,38,22,-1,58,34,11,30.92,30.53,17,7,17,0.00
2013-5-2,67,54,44,38,18,-11,58,31,5,30.56,30.41,17,6,17,0.00
2013-5-3,57,48,42,32,20,4,56,34,12,30.62,30.44,22,8,22,0.00
2013-5-4,61,50,44,37,12,-11,66,31,5,30.47,30.35,23,9,23,0.00
2013-5-5,64,51,44,36,16,-10,63,34,5,30.44,30.30,19,8,20,0.00
2013-5-6,56,51,47,47,33,23,81,52,28,30.47,30.32,15,6,15,0.00
2013-5-7,65,58,52,54,42,29,81,56,28,30.53,30.27,13,4,13,0.00
2013-5-8,66,61,59,58,46,35,82,59,33,30.44,30.27,17,9,20,0.13
2013-5-9,68,62,59,61,51,39,83,70,44,30.30,30.09,18,6,18,0.00
2013-5-10,70,64,59,60,46,29,82,56,22,30.24,30.06,16,8,17,0.00
2013-5-11,66,64,61,61,52,41,83,68,42,30.15,30.03,24,10,24,0.46
2013-5-12,67,64,54,63,49,0,91,66,12,30.09,29.82,26,10,26,0.21
2013-5-13,60,53,46,16,-1,-10,29,12,6,30.50,30.09,28,11,29,0.21
2013-5-14,63,52,47,26,2,-11,43,15,5,30.80,30.09,22,9,22,0.08
2013-5-15,61,54,47,46,26,-4,59,34,11,30.30,29.91,26,12,33,0.00
2013-5-16,69,62,58,47,25,-7,61,30,5,29.94,29.76,30,13,30,0.00
2013-5-17,71,60,52,29,5,-15,39,15,3,30.35,29.88,23,8,24,0.00
2013-5-18,66,58,48,39,29,14,48,34,18,30.50,30.32,17,8,18,0.00
2013-5-19,67,60,55,45,28,7,59,33,10,30.59,30.44,16,8,16,0.04
2013-5-20,69,64,59,60,50,39,83,63,35,30.44,30.09,25,11,26,0.25
2013-5-21,68,64,61,55,47,38,71,54,34,30.21,30.00,13,5,13,0.00
2013-5-22,68,62,57,60,47,39,82,59,36,30.24,30.06,21,8,21,0.00
2013-5-23,69,67,65,62,56,45,82,69,43,30.21,30.06,24,15,24,0.00
2013-5-24,70,67,61,64,61,56,84,82,80,30.06,29.88,42,13,42,0.00
2013-5-25,63,58,50,56,46,32,82,68,34,30.09,29.82,23,9,23,0.00
2013-5-26,59,52,45,39,16,-9,65,30,7,30.38,29.97,24,11,24,0.00
2013-5-27,71,58,49,27,11,-15,39,20,3,30.56,30.27,28,11,28,0.00
2013-5-28,68,58,47,45,30,20,56,34,17,30.68,30.38,14,6,14,0.00
2013-5-29,67,63,61,58,53,45,82,70,53,30.53,30.41,25,12,25,0.00
2013-5-30,76,68,65,57,50,41,74,54,31,30.59,30.27,19,10,23,0.00
2013-5-31,78,70,65,53,45,33,59,43,20,30.35,30.12,21,8,21,0.00
2013-6-1,73,68,66,54,47,40,63,48,31,30.21,30.06,23,12,23,0.00
2013-6-2,70,68,66,57,51,42,66,54,38,30.15,29.97,26,16,26,0.00
2013-6-3,70,69,68,64,62,56,83,80,64,30.18,30.06,32,14,32,0.00
2013-6-4,74,64,56,64,15,-20,83,25,2,30.41,30.18,17,7,20,0.00
2013-6-5,70,61,52,40,17,-15,50,24,3,30.65,30.41,15,6,15,0.00
2013-6-6,68,62,58,36,31,17,39,32,17,30.71,30.50,17,8,17,0.00
2013-6-7,71,61,58,67,48,33,89,64,38,30.77,30.59,28,12,29,0.00
2013-6-8,71,69,65,67,56,42,87,66,35,30.77,30.50,33,16,33,0.00
2013-6-9,77,69,64,53,41,21,64,39,13,30.83,30.50,20,8,21,0.00
2013-6-10,71,65,62,57,41,26,82,44,22,30.71,30.62,24,8,24,0.00
2013-6-11,73,68,62,66,61,48,90,79,53,30.65,30.27,28,13,30,0.00
2013-6-12,71,65,61,56,39,8,73,42,9,30.62,30.27,22,9,22,0.00
2013-6-13,67,61,58,47,37,28,64,41,26,30.83,30.56,20,7,20,0.00
2013-6-14,62,60,58,52,43,31,80,56,33,30.92,30.41,29,10,32,0.00
2013-6-15,80,67,58,48,22,-20,62,29,2,30.89,30.50,17,7,17,0.00
2013-6-16,72,67,64,53,47,32,62,49,23,30.77,30.50,25,10,25,0.00
2013-6-17,76,69,64,54,48,39,60,47,31,30.89,30.59,20,7,20,0.00
2013-6-18,74,69,66,54,47,40,59,47,32,30.92,30.74,17,5,17,0.00
2013-6-19,76,67,60,54,21,-20,68,27,2,30.95,30.65,22,7,22,0.00
2013-6-20,74,66,56,42,30,1,50,29,6,31.03,30.92,20,9,20,0.00
2013-6-21,72,67,64,42,28,9,40,24,9,31.03,30.89,22,14,22,0.00
2013-6-22,76,69,65,54,37,-11,60,35,3,31.03,30.89,20,11,20,0.00
2013-6-23,76,72,69,66,54,44,75,54,33,31.03,30.95,24,12,24,0.00
2013-6-24,83,77,73,69,58,44,81,57,30,31.00,30.56,23,13,25,0.00
2013-6-25,85,76,72,60,50,28,61,42,16,31.00,30.65,24,10,24,0.00
2013-6-26,84,77,73,60,54,46,59,46,29,31.03,30.92,26,7,26,0.00
2013-6-27,76,72,70,68,58,46,81,61,37,31.03,30.97,16,5,16,0.00
2013-6-28,77,76,74,71,69,63,84,79,66,31.03,30.89,31,16,33,0.00
2013-6-29,77,76,75,71,69,63,83,79,64,31.03,30.95,24,13,24,0.00
2013-6-30,80,77,75,71,67,56,79,72,51,31.03,31.03,19,11,19,0.00
2013-7-1,81,78,76,71,65,55,78,65,43,31.03,31.03,20,12,20,0.00
2013-7-2,82,79,77,71,64,56,78,63,42,31.03,31.03,21,12,21,0.00
2013-7-3,83,80,78,70,62,53,75,56,37,31.03,31.03,27,14,27,0.00
2013-7-4,86,81,77,74,64,50,78,59,30,31.03,31.03,29,16,30,0.00
2013-7-5,86,80,77,66,57,48,65,48,28,31.03,31.03,27,13,29,0.00
2013-7-6,86,80,76,62,56,46,60,45,25,31.03,31.03,23,11,23,0.00
2013-7-7,86,80,76,61,53,42,59,41,24,31.03,31.03,19,8,19,0.00
2013-7-8,84,78,75,65,54,41,67,45,23,31.03,31.03,26,12,27,0.00
2013-7-9,77,74,72,59,54,45,61,50,33,31.03,31.03,15,4,16,0.00
2013-7-10,82,78,73,70,63,53,80,63,38,31.03,31.03,23,10,23,0.00
2013-7-11,80,78,75,69,66,56,73,66,52,31.03,31.03,25,12,25,0.08
2013-7-12,78,75,70,69,58,43,77,56,31,31.03,31.03,17,7,17,0.00
2013-7-13,78,74,71,64,57,48,68,55,36,31.03,31.03,14,6,14,0.21
2013-7-14,86,80,75,75,64,51,79,60,33,31.03,31.03,13,6,13,0.29
2013-7-15,93,83,77,73,58,25,72,47,9,31.03,31.03,11,4,11,0.00
2013-7-16,92,82,73,60,32,-14,54,26,2,31.03,31.03,15,6,15,0.00
2013-7-17,83,77,72,55,47,36,51,37,20,31.03,31.03,17,7,17,0.00
2013-7-18,92,81,76,62,48,-9,58,37,2,31.03,31.03,20,9,22,0.00
2013-7-19,88,83,78,70,63,54,72,53,34,31.03,31.03,28,14,28,0.00
2013-7-20,87,83,79,68,61,52,62,49,31,31.03,31.03,31,15,31,0.00
2013-7-21,84,77,71,63,53,45,59,44,27,31.03,31.03,11,6,11,0.04
2013-7-22,78,75,72,67,56,49,75,54,36,31.03,31.03,15,7,15,0.00
2013-7-23,86,80,74,73,65,56,81,61,38,31.03,31.03,24,11,20,0.00
2013-7-24,90,81,72,64,53,38,57,39,18,31.03,31.03,15,9,15,0.00
2013-7-25,73,69,67,58,44,36,67,41,32,31.03,31.03,22,10,22,0.08
2013-7-26,74,71,69,67,63,58,80,76,65,31.03,31.03,28,9,20,0.08
2013-7-27,83,77,72,64,54,46,73,47,30,31.03,31.03,23,10,24,0.17
2013-7-28,82,77,74,71,60,48,78,57,39,31.03,31.03,14,6,14,0.17
2013-7-29,82,78,74,64,56,46,60,48,31,31.03,31.03,15,7,11,0.58
2013-7-30,86,78,72,59,34,-15,57,30,2,31.03,31.03,15,6,13,0.58
2013-7-31,84,74,67,45,31,-16,43,24,2,31.03,31.03,14,6,8,0.00
2013-8-1,81,74,70,51,42,17,45,32,10,31.03,31.03,15,8,11,0.00
2013-8-2,81,74,69,65,50,39,71,44,24,31.03,31.03,25,10,14,0.29
2013-8-3,76,74,72,54,48,36,48,40,26,31.03,31.03,29,14,20,0.08
2013-8-4,83,73,65,50,26,-17,47,23,2,31.03,31.03,23,6,11,0.04
2013-8-5,80,69,63,44,15,-20,43,19,2,31.03,31.03,20,7,9,0.04
2013-8-6,78,68,58,43,12,-20,44,19,2,31.03,31.03,11,5,5,0.00
2013-8-7,77,69,60,44,13,-20,42,16,2,31.03,31.03,13,6,8,0.00
2013-8-8,80,74,68,58,44,25,55,35,20,31.03,31.03,23,11,0,0.00
2013-8-9,79,77,73,70,62,49,76,59,41,31.03,31.03,34,17,0,0.00
2013-8-10,87,78,70,71,46,-14,80,41,2,31.03,31.03,26,10,0,0.00
2013-8-11,84,72,63,43,14,-19,42,17,2,31.03,31.03,17,7,0,0.00
2013-8-12,78,73,68,58,48,41,57,42,29,31.03,31.03,17,10,0,0.00
2013-8-13,75,72,69,62,57,53,68,59,53,31.03,31.03,15,4,0,0.00
2013-8-14,81,72,66,65,28,-20,77,33,2,31.03,31.03,22,8,0,0.00
2013-8-15,80,69,60,42,14,-20,47,20,2,31.03,31.03,20,9,0,0.00
2013-8-16,79,71,64,46,31,-10,48,27,3,31.03,31.03,18,9,0,0.00
2013-8-17,82,72,63,47,35,-16,50,30,4,31.03,31.03,11,4,0,0.00
2013-8-18,75,69,64,51,40,18,51,35,17,31.03,31.03,9,4,0,0.00
2013-8-19,80,71,62,50,45,36,56,40,26,31.03,31.03,18,7,0,0.00
2013-8-20,84,76,69,51,43,18,50,33,9,31.03,31.03,17,6,0,0.00
2013-8-21,86,76,67,57,49,38,52,40,20,31.03,31.03,17,7,0,0.00
2013-8-22,80,77,75,66,59,52,74,56,40,31.03,31.03,26,13,0,0.00
2013-8-23,81,75,67,64,34,-17,69,33,2,31.03,31.03,25,8,0,0.00
2013-8-24,79,69,58,45,14,-20,46,20,2,31.03,31.03,21,7,0,0.00
2013-8-25,81,69,56,43,23,-16,48,23,2,31.03,31.03,17,7,0,0.00
2013-8-26,75,72,70,54,44,26,53,37,19,31.03,31.03,31,16,0,0.00
2013-8-27,76,73,70,68,61,54,82,67,54,31.03,31.03,19,5,8,0.00
2013-8-28,82,73,70,67,57,47,81,59,31,31.03,31.03,10,4,11,0.00
2013-8-29,72,70,64,61,52,43,71,54,42,31.03,31.03,16,7,16,0.00
2013-8-30,77,70,63,62,50,42,66,49,35,31.03,31.03,20,9,21,0.00
2013-8-31,78,76,74,65,62,57,71,63,49,31.03,31.03,25,13,25,0.00
2013-9-1,80,78,76,72,66,60,83,68,53,31.03,31.03,20,11,22,0.25
2013-9-2,84,79,76,73,67,58,82,69,44,31.03,31.03,17,8,17,0.00
2013-9-3,79,78,77,72,71,69,81,79,74,31.03,31.03,14,8,15,0.00
2013-9-8,70,70,70,46,46,46,42,42,42,31.03,31.03,21,17,21,0.00
2013-9-10,76,71,70,55,48,36,56,45,27,31.03,31.03,26,14,26,0.00
2013-9-11,82,75,71,65,58,50,77,57,34,31.03,31.03,20,11,20,0.00
2013-9-12,79,76,74,67,61,54,79,61,43,31.03,31.03,23,12,23,0.00
2013-9-13,79,75,68,70,60,49,83,61,38,31.03,31.03,21,8,21,0.04
2013-9-14,74,67,62,49,42,33,53,41,24,31.03,31.03,17,5,20,0.00
2013-9-15,74,65,58,46,30,1,59,33,6,31.03,31.03,17,8,18,0.00
2013-9-16,68,64,58,48,41,29,56,42,26,31.03,31.03,20,6,20,0.04
2013-9-17,65,56,49,43,14,-8,59,24,5,31.03,31.03,23,9,25,0.00
2013-9-18,74,60,49,40,16,-20,48,27,2,31.03,31.03,17,7,17,0.00
2013-9-19,75,66,59,46,34,0,56,36,5,31.03,31.03,15,8,15,0.00
2013-9-20,77,68,61,54,45,34,70,46,22,31.03,31.03,13,6,13,0.00
2013-9-21,76,70,67,58,50,44,74,50,32,31.03,31.03,17,10,17,0.00
2013-9-22,73,70,60,66,51,34,81,53,36,31.03,31.03,26,9,28,0.04
2013-9-23,69,59,54,36,18,-8,40,24,5,31.03,31.03,20,8,21,0.00
2013-9-24,69,57,47,29,16,-8,48,25,5,31.03,31.03,15,5,15,0.00
2013-9-25,70,59,51,34,22,-9,50,29,4,31.03,31.03,15,4,15,0.00
2013-9-26,67,59,54,39,24,-8,51,30,5,31.03,31.03,18,6,19,0.00
2013-9-27,65,60,53,40,36,28,51,41,27,31.03,31.03,17,7,17,0.00
2013-9-28,75,60,52,53,29,0,69,35,5,31.03,31.03,15,5,15,0.00
2013-9-29,68,59,49,46,34,9,59,41,10,31.03,31.03,14,6,14,0.00
2013-9-30,73,63,58,57,39,1,80,47,6,31.03,31.03,17,5,17,0.00
2013-10-1,75,65,57,51,29,-12,72,38,3,31.03,31.03,16,6,16,0.00
2013-10-2,78,68,59,53,43,27,63,41,18,31.03,31.03,23,7,24,0.00
2013-10-3,83,69,62,43,29,-17,47,29,2,31.03,31.03,13,6,13,0.00
2013-10-4,71,63,57,51,44,35,64,50,27,31.03,31.03,16,3,17,0.00
2013-10-5,69,64,60,58,49,43,72,59,45,31.03,31.03,10,2,10,0.04
2013-10-6,66,63,60,55,48,37,71,57,39,31.03,31.03,22,7,22,0.04
2013-10-7,76,71,66,65,57,50,86,64,41,31.03,31.03,24,12,26,0.00
2013-10-8,71,62,53,66,32,0,83,37,7,31.03,31.03,24,7,26,0.13
2013-10-9,67,57,51,37,24,0,49,33,7,31.03,31.03,23,7,26,0.13
2013-10-10,72,61,52,50,41,31,64,49,27,31.03,31.03,15,6,15,0.00
2013-10-11,72,64,59,54,46,35,71,52,26,31.03,31.03,18,8,18,0.00
2013-10-12,67,61,56,45,41,36,58,48,37,31.03,31.03,26,10,26,0.00
2013-10-13,67,56,47,38,22,0,53,31,7,31.03,31.03,20,6,20,0.00
2013-10-14,65,54,44,42,25,11,62,35,13,31.03,31.03,11,4,11,0.00
2013-10-15,66,57,47,42,31,-8,56,40,5,31.03,31.03,15,4,15,0.00
2013-10-16,66,60,50,54,47,32,75,62,48,31.03,31.03,15,6,16,0.00
2013-10-17,70,65,61,60,54,46,86,67,44,31.03,31.03,18,7,19,0.00
2013-10-18,76,67,58,62,38,-12,83,44,3,31.03,31.03,23,10,23,0.00
2013-10-19,67,59,50,47,23,0,60,29,7,31.03,31.03,15,6,15,0.00
2013-10-20,68,60,49,50,18,-13,62,28,4,31.03,31.03,23,9,23,0.00
2013-10-21,66,55,41,29,12,-8,41,22,5,31.03,31.03,18,8,18,0.00
2013-10-22,69,62,55,48,39,27,61,43,28,31.03,31.03,16,7,16,0.00
2013-10-23,56,51,45,40,20,4,75,35,12,31.03,31.03,16,5,17,0.21
2013-10-24,56,48,42,36,7,-11,64,26,6,31.03,31.03,25,9,25,0.00
2013-10-25,55,45,40,18,-1,-10,39,16,8,31.03,31.03,17,7,18,0.00
2013-10-26,57,48,34,24,8,-7,47,22,9,31.03,31.03,34,14,35,0.00
2013-10-27,59,52,45,23,0,-9,38,13,7,31.03,31.03,26,9,28,0.00
2013-10-28,58,49,40,16,1,-9,33,15,7,31.03,31.03,26,9,26,0.00
2013-10-29,56,45,37,18,4,-9,33,20,7,31.03,31.03,12,4,12,0.00
2013-10-30,54,46,35,32,24,10,50,42,32,31.03,31.03,6,2,6,0.00
2013-10-31,64,56,43,52,39,22,81,53,37,31.03,31.03,23,7,23,0.00
2013-11-1,69,65,63,61,53,43,86,66,46,31.03,31.03,34,17,34,0.04
2013-11-2,64,61,57,54,46,35,74,59,39,31.03,31.03,13,2,13,0.04
2013-11-3,60,50,44,47,27,-1,72,44,15,31.03,31.03,24,9,24,0.04
2013-11-4,50,42,37,12,-4,-10,32,15,9,31.03,31.03,24,8,24,0.00
2013-11-5,57,46,39,19,9,-8,41,25,7,31.03,31.03,10,3,10,0.00
2013-11-6,61,52,39,51,31,19,75,46,25,31.03,31.03,17,6,17,0.00
2013-11-7,66,60,48,61,49,24,86,70,38,31.03,31.03,29,10,29,1.12
2013-11-8,53,45,38,26,2,-12,41,19,8,31.03,31.03,26,11,26,0.00
2013-11-9,49,41,35,15,-2,-12,37,18,8,31.03,31.03,25,7,25,0.00
2013-11-10,58,51,40,34,24,15,54,35,24,31.03,31.03,46,10,46,0.08
2013-11-11,58,48,40,29,8,-10,38,21,6,31.03,31.03,28,13,28,0.08
2013-11-12,54,42,33,32,19,6,62,42,16,31.03,31.03,23,6,25,0.12
2013-11-13,40,34,30,8,-3,-15,35,22,11,31.03,31.03,21,6,23,0.17
2013-11-14,51,43,30,19,0,-12,40,18,8,31.03,31.03,24,10,24,0.00
2013-11-15,58,51,44,35,20,-4,52,31,11,31.03,31.03,16,8,18,0.00
2013-11-16,59,49,37,34,20,-2,54,34,9,31.03,31.03,12,3,13,0.00
2013-11-17,59,51,37,53,35,15,84,57,25,31.03,31.03,16,6,16,0.08
2013-11-18,63,58,50,61,44,19,92,62,28,31.03,31.03,31,12,31,0.58
2013-11-19,51,44,36,21,-4,-12,32,13,9,31.03,31.03,24,11,26,0.00
2013-11-20,47,38,30,-4,-10,-13,23,13,9,31.03,31.03,22,8,24,0.00
2013-11-21,54,38,27,18,1,-8,41,23,8,31.03,31.03,12,4,12,0.00
2013-11-22,56,51,38,50,35,13,81,56,35,31.03,31.03,12,4,13,0.17
2013-11-23,54,46,34,42,4,-14,66,23,8,31.03,31.03,27,9,30,0.17
2013-11-24,34,27,22,-12,-18,-20,14,13,12,31.03,31.03,45,17,45,0.17
2013-11-25,40,27,19,14,-16,-22,40,14,11,31.03,31.03,24,9,27,0.17
2013-11-26,50,44,40,40,15,-4,68,33,13,31.03,31.03,23,9,23,0.17
2013-11-27,61,56,46,55,48,27,82,76,48,31.03,31.03,35,16,35,0.17
2013-11-28,46,35,27,29,-5,-19,51,20,10,31.03,31.03,31,12,32,0.00
2013-11-29,44,32,26,-10,-16,-19,13,12,9,31.03,31.03,15,6,15,0.00
2013-11-30,43,33,23,-4,-13,-20,19,13,9,31.03,31.03,13,5,13,0.00
2013-12-1,52,46,38,44,23,-4,75,43,16,31.03,31.03,16,9,17,0.00
2013-12-2,51,47,43,44,34,24,80,64,47,31.03,31.03,13,4,13,0.00
2013-12-3,48,44,39,28,24,16,52,44,37,31.03,31.03,24,7,24,0.00
2013-12-4,50,39,33,16,4,-10,41,26,9,31.03,31.03,15,4,16,0.00
2013-12-5,54,47,32,46,29,6,73,49,32,31.03,31.03,16,6,16,0.00
2013-12-6,61,54,46,54,46,29,81,75,51,31.03,31.03,17,7,20,0.00
2013-12-7,46,42,34,32,14,-13,61,36,12,31.03,31.03,18,8,20,0.00
2013-12-8,38,34,30,-8,-12,-15,15,13,11,31.03,31.03,13,5,13,0.00
2013-12-9,53,45,34,44,27,-9,75,52,15,31.03,31.03,34,10,34,0.00
2013-12-10,44,38,29,27,20,0,59,47,28,31.03,31.03,16,3,16,0.00
2013-12-11,37,31,27,6,-8,-15,38,19,11,31.03,31.03,16,3,16,0.00
2013-12-12,35,27,19,-13,-18,-22,16,13,11,31.03,31.03,23,8,23,0.00
2013-12-13,36,27,18,-14,-18,-23,14,13,11,31.03,31.03,26,9,27,0.00
2013-12-14,38,28,22,26,-8,-20,61,22,12,31.03,31.03,31,10,31,0.00
2013-12-15,54,40,31,48,23,-5,79,53,20,31.03,31.03,39,14,41,0.00
2013-12-16,35,29,22,3,-13,-20,30,16,11,31.03,31.03,27,9,27,0.00
2013-12-17,46,30,18,31,-3,-23,62,28,12,31.03,31.03,29,8,29,0.00
2013-12-18,43,36,30,29,4,-16,56,30,11,31.03,31.03,28,10,28,0.00
2013-12-19,47,39,31,12,-6,-14,28,15,9,31.03,31.03,28,10,31,0.00
2013-12-20,52,44,36,30,16,0,50,33,14,31.03,31.03,17,7,17,0.00
2013-12-21,52,50,48,43,34,25,76,56,38,31.03,31.03,17,10,17,0.00
2013-12-22,61,54,50,56,47,41,87,78,68,31.03,31.03,26,9,28,0.00
2013-12-23,54,51,47,46,43,37,78,75,67,31.03,31.03,19,4,19,0.41
2013-12-24,48,41,32,40,16,-13,74,40,12,31.03,31.03,23,9,23,0.29
2013-12-25,32,26,22,-9,-16,-20,21,14,12,31.03,31.03,24,8,24,0.00
2013-12-26,43,35,24,26,6,-15,50,31,16,31.03,31.03,19,7,20,0.21
2013-12-27,41,34,30,6,-8,-15,33,17,10,31.03,31.03,19,7,19,0.00
2013-12-28,49,40,32,20,1,-13,40,20,9,31.03,31.03,29,10,29,0.00
2013-12-29,56,47,42,48,29,19,75,50,40,31.03,31.03,31,8,31,0.79
2013-12-30,48,41,29,32,7,-17,54,29,10,31.03,31.03,26,9,33,0.00
2013-12-31,35,28,23,4,-15,-20,33,15,11,31.03,31.03,19,7,19,0.00
2014-1-1,36,28,22,-14,-18,-20,14,12,11,31.03,31.03,24,8,25,0.00
2014-1-2,37,32,27,17,7,-19,43,36,12,31.03,31.03,29,10,31,0.00